User: anonymous   Login
Location: Unspecified
(0.0000°N, 0.0000°E)
Time: 21:39:38
(UTC+01:00)
Language:

Resurs 01 Rocket - Orbit

View from above orbital plane
View from above orbital plane
View from above satellite
View from above satellite

Ground track
Ground track

The orbit data is extracted from the following two-line orbital elements,

1 23343U 94074B   17051.18109924 -.00000002  00000-0  73775-5 0  9994
2 23343  98.1684  87.0074 0008257  89.0640 311.1740 14.76688401199560
Epoch (UTC): 20 February 2017 04:20:46
Eccentricity: 0.0008257
inclination: 98.1684°
perigee height: 634 km
apogee height: 645 km
right ascension of ascending node: 87.0074°
argument of perigee: 89.0640°
revolutions per day: 14.76688401
mean anomaly at epoch: 311.1740°
orbit number at epoch: 19956

The dashed part of the orbit path shows where the satellite is in the earth's shadow,  

DLR